TimeEST,TemperatureF,Dew PointF,Humidity,Sea Level PressureIn,VisibilityMPH,Wind Direction,Wind SpeedMPH,Gust SpeedMPH,PrecipitationIn,Events,Conditions,WindDirDegrees,DateUTC
12:53 AM,37.0,21.0,52,29.76,10.0,West,18.4,25.3,N/A,,Overcast,270,2012-11-24 05:53:00
1:53 AM,35.1,23.0,61,29.78,8.0,West,17.3,-,0.00,Snow,Light Snow,270,2012-11-24 06:53:00
2:53 AM,34.0,25.0,70,29.78,6.0,WSW,11.5,18.4,0.00,Snow,Light Snow,250,2012-11-24 07:53:00
2:57 AM,33.8,24.8,70,29.76,2.5,WNW,12.7,18.4,0.00,Snow,Light Snow,300,2012-11-24 07:57:00
3:13 AM,33.8,26.6,75,29.75,5.0,WSW,9.2,-,0.00,Snow,Light Snow,250,2012-11-24 08:13:00
3:20 AM,33.8,26.6,75,29.75,2.5,West,11.5,-,0.00,Snow,Light Snow,260,2012-11-24 08:20:00
3:28 AM,32.0,26.6,80,29.75,3.0,West,9.2,-,0.00,Snow,Light Snow,270,2012-11-24 08:28:00
3:53 AM,33.1,26.1,75,29.76,9.0,West,6.9,-,0.00,Snow,Light Snow,260,2012-11-24 08:53:00
4:53 AM,34.0,24.1,67,29.77,10.0,West,16.1,21.9,0.00,,Overcast,260,2012-11-24 09:53:00
5:53 AM,32.0,26.1,79,29.78,9.0,WSW,13.8,-,0.00,Snow,Light Snow,240,2012-11-24 10:53:00
7:09 AM,32.0,26.6,80,29.78,2.0,West,10.4,-,0.00,Snow,Light Snow,260,2012-11-24 12:09:00
7:29 AM,30.2,26.6,86,29.77,3.0,West,5.8,-,0.00,Snow,Light Snow,270,2012-11-24 12:29:00
7:53 AM,30.9,27.0,85,29.81,3.0,WSW,8.1,-,0.01,Snow,Light Snow,240,2012-11-24 12:53:00
8:09 AM,32.0,24.8,75,29.79,6.0,West,17.3,24.2,0.00,Snow,Light Snow,280,2012-11-24 13:09:00
8:53 AM,33.1,26.1,75,29.81,10.0,WSW,8.1,-,0.00,,Overcast,240,2012-11-24 13:53:00
9:53 AM,34.0,21.9,61,29.81,10.0,WNW,15.0,23.0,N/A,,Mostly Cloudy,300,2012-11-24 14:53:00
10:53 AM,35.1,18.0,50,29.81,10.0,WNW,19.6,31.1,N/A,,Scattered Clouds,290,2012-11-24 15:53:00
11:53 AM,36.0,17.1,46,29.80,10.0,WNW,20.7,36.8,N/A,,Clear,300,2012-11-24 16:53:00
12:53 PM,36.0,17.1,46,29.80,10.0,NW,15.0,29.9,N/A,,Partly Cloudy,320,2012-11-24 17:53:00
1:53 PM,34.0,19.9,56,29.81,6.0,NW,16.1,33.4,0.00,Snow,Light Snow,310,2012-11-24 18:53:00
2:53 PM,35.1,18.0,50,29.82,10.0,WNW,20.7,29.9,0.00,,Mostly Cloudy,300,2012-11-24 19:53:00
3:53 PM,32.0,21.9,66,29.85,9.0,West,10.4,25.3,0.00,Snow,Light Snow,260,2012-11-24 20:53:00
4:11 PM,32.0,23.0,69,29.83,1.8,West,12.7,21.9,0.00,Snow,Light Snow,280,2012-11-24 21:11:00
4:24 PM,30.2,24.8,80,29.83,3.0,WNW,8.1,18.4,0.00,Snow,Light Snow,300,2012-11-24 21:24:00
4:34 PM,30.2,24.8,80,29.83,6.0,Variable,4.6,-,0.00,Snow,Light Snow,0,2012-11-24 21:34:00
4:51 PM,30.2,24.8,80,29.84,5.0,West,6.9,-,0.00,Snow,Light Snow,280,2012-11-24 21:51:00
4:53 PM,30.9,24.1,76,29.87,5.0,West,8.1,-,0.00,Snow,Light Snow,270,2012-11-24 21:53:00
5:53 PM,30.9,21.9,69,29.87,10.0,WNW,8.1,18.4,0.00,,Overcast,290,2012-11-24 22:53:00
6:53 PM,32.0,21.0,64,29.88,10.0,WNW,13.8,19.6,N/A,,Overcast,300,2012-11-24 23:53:00
7:53 PM,32.0,19.0,59,29.88,10.0,WNW,9.2,-,N/A,,Overcast,300,2012-11-25 00:53:00
8:53 PM,32.0,19.9,61,29.89,9.0,WNW,11.5,20.7,0.00,Snow,Light Snow,290,2012-11-25 01:53:00
9:53 PM,32.0,15.1,50,29.91,10.0,WNW,15.0,31.1,0.00,,Overcast,300,2012-11-25 02:53:00
10:53 PM,32.0,16.0,52,29.92,10.0,WNW,9.2,18.4,N/A,,Overcast,300,2012-11-25 03:53:00
11:53 PM,30.9,16.0,54,29.91,10.0,WNW,5.8,19.6,N/A,,Overcast,300,2012-11-25 04:53:00